Lid_Strength_Index
7 11 13 11 9 10 12 14 13 12 10 12 13 12 11 10 10 10 9 9 9 9 7 6 4 3 3 3 3 3 3 3 2 2 2 2 2 2 1 0 -0 0 0 0
10 13 9 9 10 10 11 13 14 12 10 11 12 13 11 11 10 10 9 9 9 8 8 7 7 6 5 5 4 4 3 2 1 2 2 1 2 2 1 1 0 0 1 1
12 10 8 9 11 12 12 13 13 14 11 11 12 14 13 11 10 9 9 8 8 8 8 8 7 6 5 5 5 4 4 2 1 2 2 2 2 3 2 2 1 1 0 -0
11 8 9 10 11 12 15 11 11 12 15 18 12 20 15 13 12 11 9 9 9 8 8 7 7 7 7 6 5 5 4 3 2 1 2 3 3 3 3 2 1 1 1 1
13 11 11 12 11 10 13 10 12 13 15 15 15 18 17 13 14 13 11 10 9 8 8 8 7 7 7 6 4 4 3 3 3 2 2 3 3 3 3 3 2 2 1 1
10 8 9 10 9 9 9 11 11 12 14 20 17 17 17 15 14 13 11 10 9 8 8 8 7 6 6 5 4 4 4 4 4 3 3 3 3 3 3 3 3 2 2 2
12 11 9 9 11 9 11 13 19 20 19 21 16 17 17 14 12 12 12 12 10 9 8 8 7 6 6 6 5 4 4 4 4 4 4 3 3 2 3 3 3 3 3 2
16 18 11 10 10 12 12 13 17 22 21 19 14 19 17 12 10 10 11 10 10 10 9 8 7 6 6 5 5 5 5 5 6 5 3 2 2 2 2 2 2 2 2 2
15 15 9 8 8 9 13 15 12 16 17 18 18 16 13 12 12 11 11 11 10 10 10 9 8 7 7 6 6 6 6 7 7 6 6 6 5 6 6 5 4 4 3 4
11 16 10 9 8 8 11 9 16 15 21 22 19 18 17 15 13 12 12 11 11 10 9 8 8 7 7 7 8 8 8 8 8 8 7 7 8 7 7 7 7 7 7 7
10 12 13 10 12 13 13 14 13 13 15 19 21 20 14 13 12 12 12 11 10 10 10 9 9 9 9 9 9 10 9 9 9 9 8 8 8 8 8 8 8 8 8 7
9 12 16 14 10 8 10 12 13 17 18 16 15 17 12 11 11 10 10 10 9 8 8 9 8 9 9 10 10 9 9 10 10 9 9 9 9 9 9 9 9 8 8 7
9 14 18 16 13 10 12 11 11 12 13 16 18 16 10 9 9 9 10 9 8 8 9 8 8 8 9 8 9 9 10 10 10 10 10 10 10 10 10 10 10 9 9 8
8 13 15 17 15 13 14 12 12 13 17 16 15 13 11 10 10 9 8 7 8 8 7 8 8 9 8 8 9 10 11 11 11 10 11 11 11 11 11 10 10 10 10 9
10 16 13 14 13 12 13 13 13 14 13 17 14 14 10 9 10 9 8 7 8 7 8 8 8 8 8 9 11 11 12 12 12 12 12 13 12 12 12 12 11 11 10 10
9 14 14 18 13 13 14 13 13 13 14 13 12 13 9 8 9 9 8 7 6 7 7 7 7 7 9 10 12 12 13 13 12 13 14 14 14 14 13 13 13 12 11 11
11 13 15 18 13 13 18 15 14 13 12 12 15 12 10 10 9 10 10 9 9 10 10 7 8 10 13 14 13 14 14 14 14 15 15 15 15 16 15 15 14 14 13 12
13 14 14 18 17 22 15 11 12 12 12 11 11 10 9 10 14 15 15 15 15 15 15 15 15 16 16 16 15 14 15 15 16 17 17 17 17 17 17 16 16 15 15 15
9 12 16 19 20 16 14 13 13 14 14 15 15 14 14 14 12 18 17 16 18 18 17 18 18 18 19 19 17 17 18 18 19 19 19 19 18 18 18 17 17 16 17 17
9 9 14 18 22 24 15 14 13 12 16 16 16 17 17 14 13 20 18 19 20 19 18 19 19 20 20 20 18 19 20 20 21 20 19 19 18 18 19 18 18 17 17 17
15 18 15 15 17 16 15 15 13 17 17 17 17 17 18 18 20 19 18 20 20 20 19 19 19 21 21 20 19 20 21 22 21 21 20 20 19 19 18 18 18 17 17 17
15 16 17 18 18 18 16 14 15 18 17 17 18 18 18 18 19 20 20 20 21 21 21 20 20 21 21 20 20 21 22 22 22 21 21 20 20 19 19 19 18 18 18 18
15 13 15 14 15 17 17 17 16 16 18 19 18 18 19 20 22 22 22 22 22 22 22 21 21 22 22 22 22 23 24 23 23 23 22 22 21 21 20 20 20 19 19 19
15 15 15 16 18 18 18 17 17 17 19 19 19 19 19 21 21 22 22 23 23 23 24 23 23 24 24 23 23 24 24 24 24 24 24 23 22 23 22 21 21 21 21 20
18 16 16 18 20 21 20 18 18 18 19 21 21 22 22 22 23 23 23 24 24 24 24 24 25 25 25 24 24 24 24 24 25 25 24 24 24 24 24 23 22 22 21 20
19 18 17 17 19 20 21 20 20 21 22 22 23 24 24 23 24 23 24 24 24 25 25 25 26 26 26 25 26 25 25 25 26 27 26 26 25 25 24 24 24 21 20 19